Location: Oslo
(59.9170°N, 10.7500°E)
Time: 00:40:50
(UTC+02:00)

ISS - Visible Passes

Search period start: 24 September 2018 00:00
Search period end: 04 October 2018 00:00
Orbit: 403 x 408 km, 51.6° (Epoch: 23 September)

Date Brightness Start Highest point End Pass type
(mag) Time Alt. Az. Time Alt. Az. Time Alt. Az.
25 Sep -1.5 21:05:11 10° SSW 21:05:59 13° S 21:05:59 13° S visible
26 Sep -1.5 20:14:18 10° S 20:15:21 11° SSE 20:16:15 10° SE visible
26 Sep -1.2 21:48:33 10° SW 21:48:56 12° SW 21:48:56 12° SW visible
27 Sep -1.9 20:57:00 10° SSW 20:59:06 17° S 20:59:06 17° S visible
28 Sep -1.7 20:05:36 10° SSW 20:07:35 15° SSE 20:09:12 11° SE visible
28 Sep -1.5 21:40:49 10° SW 21:41:52 15° SW 21:41:52 15° SW visible
29 Sep -2.1 20:49:06 10° SW 20:51:34 19° S 20:51:54 19° SSE visible
30 Sep -1.9 19:57:28 10° SW 19:59:49 18° S 20:01:54 11° SE visible
30 Sep -1.5 21:33:12 10° SW 21:34:34 16° SSW 21:34:34 16° SSW visible
01 Oct -2.0 20:41:21 10° SW 20:43:48 20° S 20:44:32 18° SSE visible
02 Oct -1.9 19:49:33 10° SW 19:52:02 20° S 19:54:30 10° SE visible
02 Oct -1.4 21:25:44 10° SW 21:27:09 15° SSW 21:27:09 15° SSW visible
03 Oct -1.8 20:33:42 10° SW 20:36:00 18° SSW 20:37:06 15° SSE visible
